This is the latest recevied weather packets stored in our database for station/object KD8JAM. If no packets are shown the sender has not sent any weather packets the latest 10 day(s).
| Time | Temp. | Humidity | Pressure | Rain* | Wind** | Luminosity | Snow |
|---|---|---|---|---|---|---|---|
| 1777594011 | 1.11° C | 89% | 1017.9 hPa | 0 mm | - | 46 W/m² | - |
| 1777593707 | 1.11° C | 87% | 1018 hPa | 0 mm | - | 49 W/m² | - |
| 1777593403 | 1.11° C | 87% | 1017.9 hPa | 0 mm | - | 53 W/m² | - |
| 1777593102 | 1.67° C | 86% | 1017.8 hPa | 0 mm | - | 61 W/m² | - |
| 1777592801 | 1.67° C | 86% | 1018 hPa | 0 mm | - | 71 W/m² | - |
| 1777592498 | 1.67° C | 86% | 1018 hPa | 0 mm | - | 81 W/m² | - |
| 1777592193 | 1.67° C | 85% | 1017.8 hPa | 0 mm | - | 92 W/m² | - |
| 1777591890 | 1.67° C | 87% | 1018.1 hPa | 0 mm | - | 103 W/m² | - |
| 1777591586 | 1.67° C | 87% | 1017.9 hPa | 0 mm | - | 103 W/m² | - |
| 1777591282 | 1.67° C | 86% | 1018.1 hPa | 0 mm | - | 109 W/m² | - |
| 1777590978 | 1.67° C | 86% | 1017.9 hPa | 0 mm | - | 115 W/m² | - |
| 1777590674 | 1.67° C | 86% | 1018 hPa | 0 mm | - | 126 W/m² | - |
| 1777590370 | 1.67° C | 86% | 1018 hPa | 0 mm | - | 158 W/m² | - |
| 1777590068 | 1.11° C | 86% | 1018 hPa | 0 mm | - | 92 W/m² | - |
| 1777589764 | 1.67° C | 84% | 1018.2 hPa | 0 mm | - | 73 W/m² | - |
| 1777589462 | 1.67° C | 83% | 1018.2 hPa | 0 mm | - | 102 W/m² | - |
| 1777589158 | 1.67° C | 83% | 1017.9 hPa | 0 mm | - | 155 W/m² | - |
| 1777588854 | 1.67° C | 82% | 1018.2 hPa | 0 mm | - | 166 W/m² | - |
| 1777588550 | 2.22° C | 81% | 1018.1 hPa | 0 mm | - | 169 W/m² | - |
| 1777588246 | 2.22° C | 81% | 1018 hPa | 0 mm | - | 187 W/m² | - |
| 1777587941 | 2.22° C | 79% | 1018 hPa | 0 mm | - | 218 W/m² | - |
| 1777587638 | 2.22° C | 80% | 1018.2 hPa | 0 mm | - | 229 W/m² | - |
| 1777587338 | 1.67° C | 83% | 1018.3 hPa | 0 mm | - | 229 W/m² | - |
| 1777587033 | 1.67° C | 83% | 1017.9 hPa | 0 mm | - | 207 W/m² | - |
| 1777586729 | 1.67° C | 81% | 1018 hPa | 0 mm | - | 189 W/m² | - |
* Rain latest hour (hover to see other rain measurements)
** Current wind speed in m/s (hover to see current wind gust speed)